Current Weather Network in the world 
cooperate with our weather  network
  
 
country list  
Weather now
02-04-20  7:38
Molinella (BO)  (Italy)  
-2.2  C.     .;

 

If you want to participate in our meteorological network, fill in form data, and send us an  e_mail and we will activate your weather station in your country. You would to send your weather reporting, one or more times a day, through our website .. for examples insert
       
manual meteorological reports today      
Weather reporting today :
Romania: stazione meteo: Amara
05:57
PAESE CITTA'DATAORAT C.(m)VENTO (Km/h)PAPREC.STATO
AustriaInnsbruck02-04-2004:20 UTC-30.51 1014
AustriaLinz02-04-2004:20 UTC-41.03 SW1015
AustriaVienna/Wien02-04-2004:20 UTC-31.54 S1015
AustriaSalisburgo/Salzsbu02-04-2004:20 UTC-41.03 1014
Belarus/BielorussiaMinsk02-04-2004:00 UTC26 SW1005
Belarus/BielorussiaRiga02-04-2004:20 UTC43.6 SSW997
BulgariaSofia02-04-2004:30 UTC-11.03 1014
Belgium/BelgioBruxelles02-04-2004:20 UTC-12.06 WSW1016
Croatia/CroaziaZagabria/Zagreb02-04-2004:00 UTC-51.03 1017
Croatia/CroaziaDubrovnik02-04-2004:00 UTC37.72 NNE1013
Croatia/CroaziaSpalato/Split02-04-2004:00 UTC43.09 NNW1014
Croatia/CroaziaPula02-04-2004:00 UTC24.12 NNE1015
Croatia/CroaziaZara/Zadar02-04-2004:00 UTC-21.03 1015
Croazia/CroatiaFiume/Rijeka02-04-2017:00 UTC95.66 E1018
Czech RepublicPraga02-04-2004:00 UTC-43.6 SW1014
SlovakiaBratislava02-04-2004:30 UTC-42.57 NNE1016
BosniaSarajevo02-04-2014:30 UTC21.03 1017
Denmark/DanimarcaAlborg02-04-2004:20 UTC58.23 W1002
Denmark/DanimarcaEsbjerg02-04-2004:20 UTC66.69 W1007
Denmark/DanimarcaCopenaghen/Koeben.02-04-2004:20 UTC57.72 W1006pioggia
Finland/FinlandiaHelsinky02-04-2015:50 UTC-23.09 NE1021
Finland/FinlandiaOulu02-04-2004:20 UTC-112.06 SE989
France/FranciaParigi/Paris02-04-2004:00 UTC13.6 N1017
France/FranciaNizza/Nices02-04-2004:00 UTC64.12 NNW1015
France/FranciaTrasburgo02-04-2004:00 UTC-20 N1014
France/FranciaMontepellier02-04-2004:00 UTC42.06 NE1014
France/FranciaLione/Lyon02-04-2004:00 UTC20 N1013
France/FranciaLilla02-04-2004:00 UTC31.03 1017
France/FranciaBrest02-04-2004:00 UTC51.03 N1019
France/FranciaBordeaux02-04-2004:00 UTC71.03 NW1014
France/FranciaMarsiglia/Marsei02-04-2004:00 UTC51.03 1014
Germany/GermaniaAmburgo-fink02-04-2004:20 UTC55.14 WSW1012
Germany/GermaniaAmburgo-fuhl02-04-2004:20 UTC54.12 WSW1012
Germany/GermaniaBerlin-sch02-04-2004:20 UTC32.57 WSW1013
Germany/GermaniaBerlino-tegel02-04-2004:20 UTC54.63 WSW1013
Germany/GermaniaMonaco02-04-2004:20 UTC-60.51 ENE1014
Germany/GermaniaNonimberga02-04-2004:20 UTC-51.03 1014
Germany/GermaniaFrancoforte02-04-2004:20 UTC-30.51 1015
Germany/GermaniaStoccarda02-04-2004:20 UTC-30.51 1013
Germany/GermaniaHannover02-04-2004:20 UTC42.06 W1014
Germany/GermaniaDusseldorf02-04-2004:20 UTC-10.51 1015
ISReykjavik02-04-2004:00 UTC-26.69 NNW1012
Netherlands/Paesi baAmsterdam02-04-2004:25 UTC53.09 SSW1015
Netherlands/Paesi BaRotterdam02-04-2004:25 UTC52.57 WSW1015
Netherlands/Paesi BaGroninga/Groningen02-04-2004:25 UTC13.6 SW1013
Netherlands/Paesi baMaastrich02-04-2004:25 UTC-12.06 SSW1015
Norway-NorvegiaOslo02-04-2004:20 UTC04.12 S990
Norway-NorvegiaTrondheim02-04-2004:20 UTC34.63 SSE981
Norway-NorvegiaBergen02-04-2004:20 UTC59.26 SW990
Norway-NorvegiaBodo02-04-2004:20 UTC-213.38 E978neve debole
Poland/PoloniaVarsavia/Warsawa02-04-2004:00 UTC22.57 SW1011
Portugal-PortogalloLisbona/Lisboa02-04-2004:00 UTC83.09 NW1012
Portugal-PortogalloFaro-airport02-04-2004:00 UTC114.63 WNW1010
Portugal-PortogalloPorto Santo02-04-2004:00 UTC141.03 N1017
Portugal-PortogalloPorto/Pedras Rubra02-04-2004:00 UTC60 N1012
RUSMosca02-04-2004:00 UTC15 SW1002
Russian-RussiaSt.Peterburg02-04-2004:00 UTC-12 SW994
RusVladivostok02-04-2004:00 UTC154 SW1010
RomaniaBucarest02-04-2004:00 UTC22.06 N1018
Spain/SpagnaMadrid/Barajas02-04-2004:00 UTC21.54 NNW1011
Spain/SpagnaMadrid/Cuatro02-04-2004:00 UTC20 N1010
Spain/SpagnaBarcellona02-04-2004:00 UTC116.17 NNE1011
Spain/SpagnaLa Couruna02-04-2004:00 UTC112.57 NNE1015
Spain/SpagnaAlmeria02-04-2004:00 UTC111.54 NNE1011
Spain/SpagnaValencia02-04-2004:00 UTC120.51 1011
SpainIbiza02-04-2004:00 UTC141.54 ENE1008
Sweden-SveziaStockholm/Stoccolm02-04-2004:20 UTC45.66 WSW991
Sweden-SveziaGoteborg02-04-2010:20 UTC-20 N1012
Sweden-SveziaMalmo02-04-2004:20 UTC56.69 W1005
Sweden-SveziaKiruna02-04-2004:20 UTC-120 N985neve debole
Sweden-SveziaSundsvall02-04-2004:20 UTC-30.51 987
Sweden-SveziaJongkoping02-04-2004:20 UTC34.63 WSW997
Sweden-SveziaJongkoping02-04-2004:20 UTC34.63 WSW997
Sweden-SveziaJongkoping02-04-2004:20 UTC34.63 WSW997
Sweden-SveziaJongkoping02-04-2004:20 UTC34.63 WSW997
Sweden-SveziaJongkoping02-04-2004:20 UTC34.63 WSW997
Sweden-SveziaJongkoping02-04-2004:20 UTC34.63 WSW997
Ukraine/UcrainaLvov/l'viv02-04-2004:00 UTC-31015
Ukraine/UcrainaKijev02-04-2004:00 UTC-23 WSW1014
United KingdomBelfast-airport02-04-2004:20 UTC77.2 W1015
United KingdomBirmingham02-04-2004:20 UTC73.6 WNW1017
United KingdomEdimburgo/Edimburg02-04-2004:20 UTC711.32 WSW1008
United KingdomLeeds02-04-2014:50 UTC76.69 W1020
United KingdomLiverpool02-04-2004:20 UTC86.17 W1016
United KingdomBristol02-04-2004:20 UTC63.09 W1018
United KingdomPlymouth02-04-2015:20 UTC66.17 NW1018
GBLondra02-04-2004:20 UTC83.6 WNW1017
UngheriaBudapest02-04-2004:30 UTC-71.54 NE1017
United KingdomManchester-airport02-04-2004:20 UTC74.12 W1016
yugoslaviaBelgrado/Beograd02-04-2004:00 UTC12.06 S1018
02-04-2004:20 UTC-22.06 S1013
 

 .

. .
. . . .

informazioni e contatti

www.meteorete.it
by.A.Santagostini C.2001-2016
P.I.05250380960

Partecipa alla rete meteorologica

  
 Cerca Meteo  
Stazioni meteo AM
Satellite e Radar
Rete in GooGle Maps
stazioni meteorete
Schermo solare Meteorete e Davis
stazioni automatiche
stazioni AM
rete internazionale
stazioni estere
archivio articoli
citta fredde

i nostri amici
negozio meteorete
dati storici stazioni
clima e riscaldamento globale
progetto meteo nelle scuole
temperatura Media in Italia 1951-2000
galleria di immagini
noleggio webcam
servizi meteo gratuiti
meteorologia per le scuole elementari